EW4458 Weather Reports


time (UTC)temp
C
wind
direction
speed
KPH
gust
KPH
rain 1hr
cm
rain 24hr
cm
rain mn
cm
humidity
%
barometer
mb
20260507030656 17 39 0.0 0.0 0.00 0.10 0.10 89 1009.5
20260507030154 17 44 0.0 0.0 0.00 0.10 0.10 89 1009.6
20260507025651 17 34 0.0 0.0 0.00 0.10 0.10 88 1009.2
20260507025147 17 38 0.0 0.0 0.00 0.10 0.10 88 1009.8
20260507024646 16 25 0.0 0.0 0.00 0.10 0.10 88 1009.7
20260507024142 16 34 0.0 0.0 0.00 0.10 0.10 88 1009.8
20260507023638 16 32 0.0 0.0 0.00 0.10 0.10 88 1009.8
20260507023136 16 32 0.0 0.0 0.00 0.10 0.10 88 1009.7
20260507022632 16 32 0.0 0.0 0.00 0.10 0.10 87 1010.0
20260507022128 16 27 0.0 0.0 0.00 0.10 0.10 87 1009.9
20260507021624 16 35 0.0 0.0 0.00 0.10 0.10 87 1009.8
20260507021120 16 28 0.0 0.0 0.00 0.10 0.10 87 1010.0
20260507020619 16 30 0.0 0.0 0.00 0.10 0.10 87 1010.0
20260507020114 16 44 0.0 0.0 0.00 0.10 0.10 87 1010.0
20260507015613 16 38 0.0 0.0 0.00 0.10 0.10 86 1010.2
20260507015110 17 43 0.0 0.0 0.00 0.10 0.10 86 1010.0
20260507014607 16 35 0.0 0.0 0.00 0.10 0.10 85 1010.4
20260507014102 17 29 0.0 0.0 0.00 0.10 0.10 85 1010.4
20260507013559 17 27 0.0 0.0 0.00 0.10 0.10 85 1010.6
20260507013056 16 31 0.0 0.0 0.00 0.10 0.10 84 1010.4
20260507012554 16 31 0.0 0.0 0.00 0.10 0.10 84 1010.1
20260507012049 17 31 0.0 0.0 0.00 0.10 0.10 83 1010.1
20260507011547 17 30 0.0 0.0 0.00 0.10 0.10 84 1010.2
20260507011038 17 28 0.0 0.0 0.00 0.10 0.10 83 1010.0
20260507010538 17 27 0.0 0.0 0.00 0.10 0.10 83 1010.1
20260507010034 17 37 0.0 0.0 0.00 0.10 0.10 83 1009.9
20260507005532 17 49 0.0 0.0 0.00 0.10 0.10 82 1010.1
20260507005028 18 47 0.0 0.0 0.00 0.10 0.10 82 1010.1
20260507004525 18 48 0.0 0.0 0.00 0.10 0.10 82 1010.0
20260507004023 18 47 0.0 0.0 0.00 0.10 0.10 82 1009.9
20260507003518 18 67 0.0 0.0 0.00 0.10 0.10 81 1010.0
20260507003013 19 57 0.0 0.0 0.00 0.10 0.10 81 1009.8
20260507002510 19 35 0.0 0.0 0.00 0.10 0.10 80 1009.9
20260507002006 19 33 0.0 0.0 0.00 0.10 0.10 79 1009.6
20260507001503 20 35 0.0 0.0 0.00 0.10 0.10 79 1009.7
20260507001000 20 42 0.0 0.0 0.00 0.10 0.10 78 1009.7
20260507000456 20 54 0.0 0.0 0.00 0.10 0.10 78 1009.7
20260506235952 20 0 0.0 0.0 0.00 0.10 0.10 78 1009.6
20260506235450 20 272 3.2 4.8 0.00 0.10 0.10 77 1009.6
20260506234945 20 32 0.0 0.0 0.00 0.10 0.10 77 1009.6
20260506234443 20 26 0.0 0.0 0.00 0.10 0.10 77 1009.3
20260506233940 20 341 1.6 3.2 0.00 0.10 0.10 76 1009.3
20260506233436 20 307 4.8 8.0 0.00 0.10 0.10 76 1009.4
20260506232933 21 170 3.2 4.8 0.00 0.10 0.10 76 1009.5
20260506232429 21 17 4.8 4.8 0.00 0.10 0.10 76 1009.5
20260506231925 21 330 4.8 4.8 0.00 0.10 0.10 75 1009.4
20260506231423 21 289 4.8 4.8 0.00 0.10 0.10 75 1009.3
20260506230920 21 309 4.8 4.8 0.00 0.10 0.10 75 1009.1
20260506230416 21 239 4.8 4.8 0.00 0.10 0.10 75 1009.2
20260506225913 21 231 11.3 14.5 0.00 0.10 0.10 75 1009.5
20260506225411 21 332 6.4 11.3 0.00 0.10 0.10 75 1009.3
20260506224907 21 286 4.8 4.8 0.00 0.10 0.10 74 1009.3
20260506224405 21 273 8.0 11.3 0.00 0.10 0.10 74 1009.5
20260506223900 21 278 8.0 14.5 0.00 0.10 0.10 74 1009.5
20260506223356 21 339 4.8 4.8 0.00 0.10 0.10 74 1009.2
20260506222853 21 293 8.0 11.3 0.00 0.10 0.10 74 1009.5
20260506222349 21 234 8.0 8.0 0.00 0.10 0.10 74 1009.4
20260506221847 21 275 8.0 11.3 0.00 0.10 0.10 74 1009.2
20260506221344 21 215 4.8 4.8 0.00 0.10 0.10 74 1009.5
20260506220842 21 248 11.3 16.1 0.00 0.10 0.10 73 1009.4
20260506220337 21 297 8.0 11.3 0.00 0.10 0.10 73 1009.4
20260506215834 21 272 14.5 19.3 0.00 0.10 0.10 73 1009.4
20260506215330 21 229 12.9 16.1 0.00 0.10 0.10 73 1009.4
20260506214826 21 310 8.0 14.5 0.00 0.10 0.10 73 1009.3
20260506214323 21 357 4.8 8.0 0.00 0.10 0.10 73 1008.9
20260506213821 21 290 6.4 8.0 0.00 0.10 0.10 74 1009.1
20260506213318 21 274 9.7 11.3 0.00 0.10 0.10 74 1009.1
20260506212815 21 238 8.0 8.0 0.00 0.10 0.10 74 1009.2
20260506212311 21 16 11.3 14.5 0.00 0.10 0.10 74 1009.2
20260506211806 21 302 12.9 16.1 0.00 0.10 0.10 73 1009.1
20260506211302 21 251 6.4 8.0 0.00 0.10 0.10 74 1009.2
20260506210800 21 249 14.5 16.1 0.00 0.10 0.10 73 1009.0
20260506210256 21 236 14.5 19.3 0.00 0.10 0.10 73 1009.0
20260506205754 21 296 6.4 11.3 0.00 0.10 0.10 73 1009.0
20260506205249 21 297 6.4 8.0 0.00 0.10 0.10 73 1008.8
20260506204746 21 238 8.0 11.3 0.00 0.10 0.10 74 1008.9
20260506204244 21 204 12.9 16.1 0.00 0.10 0.10 74 1008.9
20260506203742 21 257 14.5 16.1 0.00 0.10 0.10 74 1009.0
20260506203239 21 235 8.0 14.5 0.00 0.10 0.10 74 1008.9
20260506202736 21 210 11.3 14.5 0.00 0.10 0.10 73 1008.7
20260506202232 21 272 12.9 16.1 0.00 0.10 0.10 73 1008.9
20260506201729 21 290 8.0 11.3 0.00 0.10 0.10 74 1009.0
20260506201226 21 283 12.9 16.1 0.00 0.10 0.10 73 1008.9
20260506200723 21 242 12.9 14.5 0.00 0.10 0.10 73 1009.1
20260506200220 21 226 16.1 19.3 0.00 0.10 0.10 73 1009.0
20260506195716 21 260 4.8 8.0 0.00 0.10 0.10 73 1009.1
20260506195213 21 230 12.9 16.1 0.00 0.10 0.10 73 1009.3
20260506194710 21 215 17.7 30.6 0.00 0.10 0.10 73 1009.1
20260506194206 21 342 4.8 8.0 0.00 0.10 0.10 73 1009.1
20260506193704 21 217 16.1 19.3 0.00 0.10 0.10 73 1009.2
20260506193201 21 156 6.4 8.0 0.00 0.10 0.10 73 1009.5
20260506192658 21 268 17.7 22.5 0.00 0.10 0.10 73 1009.3
20260506192154 21 270 8.0 14.5 0.00 0.10 0.10 73 1009.5
20260506191651 21 285 12.9 16.1 0.00 0.10 0.10 72 1009.6
20260506191147 21 288 9.7 11.3 0.00 0.10 0.10 72 1009.3
20260506190644 21 206 17.7 24.1 0.00 0.10 0.10 72 1009.2
20260506190141 21 214 27.4 38.6 0.00 0.10 0.10 73 1009.4
20260506185638 21 243 12.9 19.3 0.00 0.10 0.10 73 1009.5
20260506185134 21 224 24.1 33.8 0.00 0.10 0.10 73 1009.8
20260506184632 21 228 17.7 24.1 0.00 0.10 0.10 74 1009.9
20260506184129 20 222 8.0 19.3 0.00 0.10 0.10 74 1010.1
20260506183625 20 276 16.1 22.5 0.00 0.10 0.10 74 1010.0
20260506183121 20 248 16.1 22.5 0.00 0.10 0.10 74 1010.3
20260506182619 20 227 24.1 30.6 0.00 0.10 0.10 75 1010.2
20260506182116 20 250 25.7 33.8 0.00 0.10 0.10 75 1010.4
20260506181614 20 203 11.3 14.5 0.00 0.10 0.10 77 1010.3
20260506181111 20 300 12.9 19.3 0.00 0.10 0.10 77 1010.2
20260506180608 20 245 20.9 30.6 0.00 0.10 0.10 77 1010.5
20260506180104 20 242 16.1 19.3 0.00 0.10 0.10 78 1010.6
20260506175600 20 270 19.3 22.5 0.00 0.10 0.10 78 1010.6
20260506175056 20 277 22.5 27.4 0.00 0.10 0.10 79 1010.5
20260506174556 20 249 27.4 35.4 0.00 0.10 0.10 78 1010.8
20260506174051 19 297 9.7 11.3 0.00 0.10 0.10 80 1010.5
20260506173549 19 295 11.3 22.5 0.00 0.10 0.10 81 1010.6
20260506173046 19 254 11.3 16.1 0.00 0.10 0.10 81 1010.7
20260506172543 18 258 9.7 14.5 0.00 0.10 0.10 83 1010.3
20260506172034 18 253 11.3 11.3 0.00 0.10 0.10 83 1010.6
20260506171531 18 148 14.5 19.3 0.00 0.10 0.10 83 1010.9
20260506171028 18 316 8.0 14.5 0.00 0.10 0.10 84 1010.6
20260506170526 18 216 8.0 8.0 0.00 0.10 0.10 86 1010.9
20260506170023 18 219 16.1 19.3 0.00 0.10 0.10 86 1011.0
20260506165522 18 222 20.9 24.1 0.00 0.10 0.10 85 1010.8
20260506165017 18 216 12.9 16.1 0.00 0.10 0.10 86 1010.9
20260506164514 18 234 4.8 8.0 0.00 0.10 0.10 87 1010.9
20260506164012 18 210 19.3 24.1 0.18 0.10 0.10 86 1010.9
20260506163507 18 230 11.3 14.5 0.18 0.10 0.10 86 1010.9
20260506163003 18 199 24.1 38.6 0.13 0.08 0.08 85 1011.2
20260506162500 18 194 16.1 24.1 0.13 0.08 0.08 85 1011.3
20260506161951 18 243 17.7 22.5 0.18 0.05 0.05 84 1011.3
20260506161449 18 226 22.5 33.8 0.18 0.05 0.05 83 1011.4
20260506160946 18 224 14.5 16.1 0.18 0.05 0.05 83 1011.6
20260506160444 18 207 8.0 11.3 0.18 0.03 0.03 82 1011.6
20260506155941 18 256 9.7 14.5 0.18 0.03 0.03 81 1012.0
20260506155439 18 193 14.5 19.3 0.00 0.00 0.00 80 1012.1
20260506153610 19 208 12.9 16.1 0.00 0.00 0.00 77 1012.0
20260506153108 19 277 8.0 11.3 0.00 0.00 0.00 76 1012.2
20260506152604 19 244 6.4 8.0 0.00 0.00 0.00 75 1012.0
20260506152102 20 280 12.9 19.3 0.00 0.00 0.00 74 1012.1
20260506151600 20 214 22.5 30.6 0.00 0.00 0.00 73 1012.1
20260506151057 20 257 14.5 16.1 0.00 0.00 0.00 72 1012.3
20260506150554 20 245 16.1 24.1 0.00 0.00 0.00 72 1012.1
20260506150050 20 304 9.7 11.3 0.00 0.00 0.00 72 1012.0
20260506145547 20 223 12.9 22.5 0.00 0.00 0.00 70 1011.9
20260506145045 20 245 14.5 19.3 0.00 0.00 0.00 69 1011.8
20260506144541 20 263 8.0 11.3 0.00 0.00 0.00 69 1012.1
20260506144039 20 209 19.3 24.1 0.00 0.00 0.00 68 1012.0
20260506143536 20 232 9.7 16.1 0.00 0.00 0.00 67 1012.0
20260506143035 20 217 16.1 19.3 0.00 0.00 0.00 66 1011.9
20260506142532 20 191 11.3 14.5 0.00 0.00 0.00 67 1012.3
20260506142030 20 252 12.9 19.3 0.00 0.00 0.00 66 1012.3
20260506141527 21 272 8.0 11.3 0.00 0.00 0.00 65 1012.1
20260506141026 21 251 14.5 16.1 0.00 0.00 0.00 64 1012.3
20260506140523 21 135 11.3 14.5 0.00 0.00 0.00 64 1012.1
20260506140020 21 253 12.9 14.5 0.00 0.00 0.00 64 1011.9
20260506135517 21 264 17.7 22.5 0.00 0.00 0.00 64 1012.0
20260506135013 21 180 9.7 14.5 0.00 0.00 0.00 64 1011.8
20260506134509 21 261 12.9 16.1 0.00 0.00 0.00 64 1011.8
20260506134006 21 287 6.4 8.0 0.00 0.00 0.00 64 1011.8
20260506133503 21 283 11.3 14.5 0.00 0.00 0.00 64 1011.7
20260506132959 21 242 14.5 16.1 0.00 0.00 0.00 64 1012.2
20260506132457 21 164 11.3 16.1 0.00 0.00 0.00 64 1011.8
20260506131954 21 206 4.8 4.8 0.00 0.00 0.00 65 1012.0
20260506131451 20 280 24.1 33.8 0.00 0.00 0.00 65 1012.0
20260506130947 20 222 9.7 14.5 0.00 0.00 0.00 66 1012.2
20260506130444 20 236 8.0 16.1 0.00 0.00 0.00 66 1011.9
20260506125942 20 226 14.5 16.1 0.00 0.00 0.00 67 1012.0
20260506125440 20 238 12.9 19.3 0.00 0.00 0.00 67 1012.0
20260506124938 20 243 25.7 35.4 0.00 0.00 0.00 67 1012.0
20260506124435 20 287 4.8 4.8 0.00 0.00 0.00 68 1012.2
20260506123933 20 213 14.5 19.3 0.00 0.00 0.00 67 1012.4
20260506123431 20 249 9.7 11.3 0.00 0.00 0.00 69 1012.3
20260506122928 20 224 24.1 30.6 0.00 0.00 0.00 69 1012.5
20260506122425 20 198 16.1 19.3 0.00 0.00 0.00 69 1012.5
20260506121923 19 245 12.9 16.1 0.00 0.00 0.00 70 1012.3
20260506121420 19 251 12.9 14.5 0.00 0.00 0.00 70 1012.7
20260506120917 19 282 14.5 22.5 0.00 0.00 0.00 70 1012.6
20260506120414 19 235 4.8 8.0 0.00 0.00 0.00 70 1012.4
20260506115911 19 224 8.0 11.3 0.00 0.00 0.00 69 1012.6
20260506115409 19 209 12.9 19.3 0.00 0.00 0.00 69 1012.4
20260506114908 19 348 14.5 24.1 0.00 0.00 0.00 69 1012.6
20260506114405 19 229 16.1 16.1 0.00 0.00 0.00 69 1012.2
20260506113904 18 213 11.3 24.1 0.00 0.00 0.00 70 1012.4
20260506113401 19 225 11.3 14.5 0.00 0.00 0.00 69 1012.2
20260506112857 18 296 9.7 14.5 0.00 0.00 0.00 70 1012.2
20260506112354 18 248 6.4 11.3 0.00 0.00 0.00 71 1012.2
20260506111851 18 208 14.5 19.3 0.00 0.00 0.00 71 1012.2
20260506111350 18 231 4.8 4.8 0.00 0.00 0.00 71 1012.2
20260506110847 18 297 6.4 8.0 0.00 0.00 0.00 71 1012.1
20260506110344 18 253 11.3 16.1 0.00 0.00 0.00 71 1012.1
20260506105841 18 328 12.9 19.3 0.00 0.00 0.00 71 1012.1
20260506105337 18 277 6.4 11.3 0.00 0.00 0.00 70 1012.0
20260506104835 18 168 16.1 19.3 0.00 0.00 0.00 70 1012.1
20260506104332 18 257 14.5 16.1 0.00 0.00 0.00 71 1011.9
20260506103830 18 210 14.5 19.3 0.00 0.00 0.00 71 1011.9
20260506103327 18 218 6.4 11.3 0.00 0.00 0.00 71 1011.8
20260506102824 18 278 19.3 24.1 0.00 0.00 0.00 72 1011.6
20260506102322 17 197 17.7 22.5 0.00 0.00 0.00 72 1011.8
20260506101819 17 242 4.8 8.0 0.00 0.00 0.00 72 1012.1
20260506101315 17 235 14.5 19.3 0.00 0.00 0.00 72 1012.1
20260506100813 17 253 4.8 8.0 0.00 0.00 0.00 72 1011.8
20260506100311 18 242 9.7 11.3 0.00 0.00 0.00 72 1012.0
20260506095809 18 216 17.7 22.5 0.00 0.00 0.00 72 1012.0
20260506095306 18 194 11.3 14.5 0.00 0.00 0.00 72 1012.2
20260506094803 18 226 4.8 8.0 0.00 0.00 0.00 72 1012.2
20260506094301 18 121 4.8 4.8 0.00 0.00 0.00 72 1012.0
20260506093759 18 233 8.0 11.3 0.00 0.00 0.00 72 1012.1
20260506093256 18 256 4.8 8.0 0.00 0.00 0.00 72 1012.1
20260506092754 18 279 9.7 11.3 0.00 0.00 0.00 72 1011.9
20260506092252 18 295 9.7 19.3 0.00 0.00 0.00 73 1011.6
20260506091748 18 207 16.1 24.1 0.00 0.00 0.00 73 1011.7
20260506091246 18 340 11.3 16.1 0.00 0.00 0.00 72 1012.0
20260506090744 18 231 8.0 11.3 0.00 0.00 0.00 72 1011.9
20260506090241 18 279 14.5 19.3 0.00 0.00 0.00 73 1011.8
20260506085737 18 234 11.3 19.3 0.00 0.00 0.00 72 1011.9
20260506085234 18 253 16.1 19.3 0.00 0.00 0.00 73 1011.8
20260506084730 18 259 12.9 16.1 0.00 0.00 0.00 72 1011.9
20260506084226 18 203 14.5 19.3 0.00 0.00 0.00 72 1011.8
20260506083724 18 215 17.7 27.4 0.00 0.00 0.00 73 1012.0
20260506083222 18 211 12.9 19.3 0.00 0.00 0.00 73 1012.2
20260506082719 18 242 9.7 11.3 0.00 0.00 0.00 73 1012.1
20260506082214 18 309 9.7 14.5 0.00 0.00 0.00 73 1012.0
20260506081712 18 229 8.0 11.3 0.00 0.00 0.00 73 1012.2
20260506081209 18 214 8.0 8.0 0.00 0.00 0.00 73 1012.2
20260506080707 18 347 12.9 16.1 0.00 0.00 0.00 73 1012.3
20260506080203 18 277 12.9 16.1 0.00 0.00 0.00 73 1012.2
20260506073148 18 175 16.1 19.3 0.00 0.00 0.00 74 1012.2
20260506072644 18 200 4.8 8.0 0.00 0.00 0.00 74 1012.1
20260506072142 18 301 14.5 16.1 0.00 0.00 0.00 74 1012.2
20260506071639 18 261 12.9 24.1 0.00 0.00 0.00 74 1012.1
20260506071137 18 235 14.5 16.1 0.00 0.00 0.00 74 1012.2
20260506070634 18 212 3.2 4.8 0.00 0.00 0.00 74 1012.3
20260506070131 18 228 4.8 11.3 0.00 0.00 0.00 74 1012.3
20260506062108 19 225 9.7 11.3 0.00 0.00 0.00 73 1012.5
20260506061604 19 163 11.3 14.5 0.00 0.00 0.00 73 1012.5
20260506061102 19 213 8.0 14.5 0.00 0.00 0.00 73 1012.6
20260506060600 19 277 20.9 30.6 0.00 0.00 0.00 73 1012.7
20260506051028 20 207 17.7 22.5 0.00 0.00 0.00 71 1012.7
20260506050526 20 251 17.7 22.5 0.00 0.00 0.00 71 1012.8
20260506045017 20 231 12.9 16.1 0.00 0.00 0.00 71 1012.9
20260506044515 20 215 17.7 22.5 0.00 0.00 0.00 71 1012.9
20260506044011 20 196 11.3 14.5 0.00 0.00 0.00 71 1012.7
20260506043508 20 217 27.4 38.6 0.00 0.00 0.00 71 1013.0
20260506043007 20 213 12.9 16.1 0.00 0.00 0.00 70 1012.9
20260506042506 20 295 16.1 22.5 0.00 0.00 0.00 70 1012.7
20260506042003 20 216 19.3 24.1 0.00 0.00 0.00 70 1012.8
20260506041501 20 223 25.7 30.6 0.00 0.00 0.00 70 1012.9
20260506040958 21 190 17.7 24.1 0.00 0.00 0.00 70 1012.9
20260506040456 21 244 16.1 24.1 0.00 0.00 0.00 69 1012.7
20260506035951 21 254 14.5 16.1 0.00 0.00 0.00 69 1012.7
20260506035449 21 196 17.7 27.4 0.00 0.00 0.00 69 1012.7
20260506034945 21 171 16.1 22.5 0.00 0.00 0.00 69 1012.6
20260506034443 21 229 14.5 19.3 0.00 0.00 0.00 69 1012.7
20260506033940 21 197 17.7 22.5 0.00 0.00 0.00 69 1012.6
20260506033437 21 209 9.7 14.5 0.00 0.00 0.00 69 1012.6
20260506032934 21 219 9.7 11.3 0.00 0.00 0.00 69 1012.6
20260506032431 21 245 33.8 43.5 0.00 0.00 0.00 68 1012.6
20260506031927 21 255 19.3 24.1 0.00 0.00 0.00 68 1012.8
20260506031425 21 281 6.4 8.0 0.00 0.00 0.00 68 1012.4